This is the latest recevied weather packets stored in our database for station/object HP1COO-13. If no packets are shown the sender has not sent any weather packets the latest 10 day(s).
| Time | Temp. | Humidity | Pressure | Rain* | Wind** | Luminosity | Snow |
|---|---|---|---|---|---|---|---|
| 1788626725 | 33.89° C | 68% | 1006.2 hPa | 0 mm | - | - | - |
| 1788626092 | 33.89° C | 66% | 1006.2 hPa | 0 mm | - | - | - |
| 1788625459 | 34.44° C | 65% | 1006.4 hPa | 0 mm | - | - | - |
| 1788624826 | 32.78° C | 68% | 1006.3 hPa | 0 mm | - | - | - |
| 1788624222 | 33.33° C | 67% | 1006.5 hPa | 0 mm | - | - | - |
| 1788622927 | 32.78° C | 68% | 1006.6 hPa | 0 mm | - | - | - |
| 1788622294 | 32.22° C | 71% | 1006.9 hPa | 0 mm | - | - | - |
| 1788621661 | 32.22° C | 71% | 1007.2 hPa | 0 mm | - | - | - |
| 1788621028 | 32.22° C | 71% | 1007.2 hPa | 0 mm | - | - | - |
| 1788620395 | 32.22° C | 72% | 1007.1 hPa | 0 mm | - | - | - |
| 1788619762 | 31.67° C | 73% | 1007.5 hPa | 0 mm | - | - | - |
| 1788618496 | 31.67° C | 71% | 1007.7 hPa | 0 mm | - | - | - |
| 1788617863 | 31.67° C | 71% | 1007.4 hPa | 0 mm | - | - | - |
| 1788617230 | 31.67° C | 72% | 1007.5 hPa | 0 mm | - | - | - |
| 1788616597 | 31.11° C | 75% | 1007.5 hPa | 0 mm | - | - | - |
| 1788615331 | 30.56° C | 77% | 1007.1 hPa | 0 mm | - | - | - |
| 1788614699 | 30° C | 79% | 1007.1 hPa | 0 mm | - | - | - |
| 1788614079 | 29.44° C | 82% | 1007.1 hPa | 0 mm | - | - | - |
| 1788613433 | 28.89° C | 85% | 1007.1 hPa | 0 mm | - | - | - |
| 1788612799 | 28.33° C | 87% | 1007.4 hPa | 0 mm | - | - | - |
| 1788612166 | 28.33° C | 88% | 1007.1 hPa | 0 mm | - | - | - |
| 1788611533 | 27.78° C | 89% | 1007 hPa | 0 mm | - | - | - |
| 1788610901 | 27.78° C | 90% | 1007.2 hPa | 0 mm | - | - | - |
| 1788610267 | 26.67° C | 92% | 1007.1 hPa | 0 mm | - | - | - |
| 1788609634 | 26.67° C | 93% | 1006.6 hPa | 0 mm | - | - | - |
* Rain latest hour (hover to see other rain measurements)
** Current wind speed in m/s (hover to see current wind gust speed)